Weather History for KGSP - April, 2013

Change the Weather History Date:

Tuesday, April 2, 2013

  Actual Average Record
Temperature  
Mean Temperature 57 °F 57 °F  
Max Temperature 70 °F 69 °F 88 °F (2012)
Min Temperature 43 °F 45 °F 26 °F (1902)
Degree Days  
Heating Degree Days 8 8  
Month to date heating degree days 10 17  
Since 1 July heating degree days 2750 2850  
Cooling Degree Days 0 1  
Month to date cooling degree days 0 2  
Year to date cooling degree days 2 10  
Growing Degree Days 6 (Base 50)    
Moisture  
Dew Point 30 °F    
Average Humidity 43    
Maximum Humidity 65    
Minimum Humidity 20    
Precipitation  
Precipitation T in 0.12 in 2.30 in (1936)
Month to date precipitation 0.02 0.24  
Year to date precipitation 12.69 12.55  
Snow  
Snow 0.00 in 0.00 in 0.00 in ()
Month to date snowfall 0.0 0.0  
Since 1 July snowfall 2.0 4.7  
Snow Depth 0.00 in    
Sea Level Pressure  
Sea Level Pressure 30.04 in    
Wind  
Wind Speed 5 mph (NNW)    
Max Wind Speed 16 mph    
Max Gust Speed 23 mph    
Visibility 10 miles    
Events      
T = Trace of Precipitation, MM = Missing Value Source: NWS Daily Summary

Daily Weather History Graph

Daily Weather History Graph

Search for Another Location

Airport or City:

Trip Planner

Search our weather history database for the weather conditions in past years. The results will help you decide how hot, cold, wet, or windy it might be!

Date:

Astronomy

Apr. 02, 2013 Rise Set
Actual Time 7:14 AM EDT 7:51 PM EDT
Civil Twilight 6:48 AM EDT 8:16 PM EDT
Nautical Twilight 6:18 AM EDT 8:46 PM EDT
Astronomical Twilight 5:48 AM EDT 9:17 PM EDT
Moon 1:45 AM EDT 12:12 PM EDT
Length of Visible Light 13h 28m
Length of Day
12h 37m
Waning Gibbous, 56% of the Moon is Illuminated
Apr 2
Waning Gibbous
Apr 3
Last Quarter
Apr 10
New
Apr 18
First Quarter
Apr 25
Full

Hourly Weather History & Observations

Time (EDT) Temp. Windchill Dew Point Humidity Pressure Visibility Wind Dir Wind Speed Gust Speed Precip Events Conditions
12:53 AM 53.1 °F - 34.0 °F 48% 29.96 in 10.0 mi Calm Calm - N/A   Clear
1:53 AM 51.1 °F - 34.0 °F 52% 29.97 in 10.0 mi Calm Calm - N/A   Clear
2:53 AM 50.0 °F - 34.0 °F 54% 29.97 in 10.0 mi NE 3.5 mph - N/A   Clear
3:53 AM 46.9 °F - 33.1 °F 59% 29.98 in 10.0 mi Calm Calm - N/A   Clear
4:53 AM 48.0 °F - 33.1 °F 56% 30.01 in 10.0 mi NNE 3.5 mph - N/A   Clear
5:53 AM 45.0 °F 43.5 °F 33.1 °F 63% 30.04 in 9.0 mi ENE 3.5 mph - N/A   Clear
6:53 AM 44.1 °F 41.5 °F 33.1 °F 65% 30.07 in 10.0 mi North 4.6 mph - N/A   Clear
7:53 AM 44.1 °F - 33.1 °F 65% 30.10 in 10.0 mi Calm Calm - N/A   Clear
8:53 AM 48.9 °F - 34.0 °F 56% 30.12 in 10.0 mi NNE 4.6 mph - N/A   Clear
9:53 AM 52.0 °F - 32.0 °F 47% 30.12 in 10.0 mi Variable 3.5 mph - N/A   Clear
10:53 AM 55.0 °F - 32.0 °F 42% 30.13 in 10.0 mi Calm Calm - N/A   Clear
11:53 AM 57.9 °F - 33.1 °F 39% 30.12 in 10.0 mi Variable 4.6 mph - N/A   Clear
12:53 PM 59.0 °F - 33.1 °F 38% 30.10 in 10.0 mi Variable 4.6 mph - N/A   Clear
1:53 PM 64.0 °F - 28.9 °F 27% 30.07 in 10.0 mi Variable 3.5 mph - N/A   Clear
2:53 PM 66.0 °F - 28.0 °F 24% 30.04 in 10.0 mi SW 10.4 mph 18.4 mph N/A   Clear
3:53 PM 66.0 °F - 25.0 °F 21% 30.01 in 10.0 mi WSW 9.2 mph - N/A   Clear
4:53 PM 66.9 °F - 27.0 °F 22% 29.99 in 10.0 mi WSW 9.2 mph - N/A   Clear
5:53 PM 68.0 °F - 30.0 °F 24% 29.99 in 10.0 mi SW 12.7 mph 17.3 mph N/A   Mostly Cloudy
6:53 PM 66.9 °F - 30.9 °F 26% 30.00 in 10.0 mi SW 11.5 mph - N/A   Mostly Cloudy
7:53 PM 63.0 °F - 28.9 °F 28% 30.01 in 10.0 mi North 6.9 mph - N/A   Overcast
8:53 PM 60.1 °F - 26.1 °F 27% 30.04 in 10.0 mi NNW 3.5 mph - N/A   Overcast
9:53 PM 57.9 °F - 24.1 °F 27% 30.07 in 10.0 mi Calm Calm - N/A   Overcast
10:53 PM 57.0 °F - 25.0 °F 29% 30.07 in 10.0 mi North 4.6 mph - N/A   Overcast
11:53 PM 55.9 °F - 23.0 °F 28% 30.09 in 10.0 mi NE 4.6 mph - N/A   Overcast